Regional Weather Roundup
Issued by NWS

Home | Current Version | Previous Version | Graphics & Text | Print | Product List | Glossary On
Versions: 1 2 3 4 5 6 7 8 9 10 11 12 13 14 15 16 17 18 19 20 21 22 23 24 25 26 27 28 29 30 31 32 33 34 35 36 37 38 39 40 41 42 43 44 45 46 47 48 49 50
000
ASUS43 KMKX 300111
RWRWI

WISCONSIN REGIONAL WEATHER ROUNDUP
NATIONAL WEATHER SERVICE MILWAUKEE/SULLIVAN WI
800 PM CDT MON JUN 29 2015

NOTE: "FAIR" INDICATES FEW OR NO CLOUDS BELOW 12,000 FEET WITH NO
SIGNIFICANT WEATHER AND/OR OBSTRUCTIONS TO VISIBILITY.

WIZ001-002-006>008-014>016-023>028-300200-
NORTHWEST WISCONSIN

CITY           SKY/WX    TMP DP  RH WIND       PRES   REMARKS
SUPERIOR ARPT  CLEAR     71  65  84 CALM      29.77R
ASHLAND        MOCLDY    69  63  81 E6        29.78R
HAYWARD        PTCLDY    69  60  73 CALM      29.80R
SIREN          PTCLDY    66  62  89 SW5       29.81R
CUMBERLAND     MOCLDY    63  59  88 NW3       29.81S
RICE LAKE      MOCLDY    64  60  85 CALM      29.81S
CHETEK         MOCLDY    63  61  91 CALM      29.80R
LADYSMITH      MOCLDY    64  60  87 W6        29.81S
EAU CLAIRE     CLOUDY    61  59  93 CALM      29.77F FOG
MENOMONIE      CLOUDY    61  61 100 CALM      29.79F
NEW RICHMOND   CLOUDY    61  60  96 S3        29.81S
OSCEOLA        CLOUDY    64  64  99 CALM      29.82F
$$

WIZ003>005-009-010-017-018-300200-
NORTH CENTRAL WISCONSIN

CITY           SKY/WX    TMP DP  RH WIND       PRES   REMARKS
MANITOWISH WTR MOCLDY    65  64  96 CALM      29.79S
ARBOR VITAE    MOCLDY    64  61  88 CALM      29.80R
WOODRUFF       MOCLDY    64  61  88 CALM      29.80R
RHINELANDER    CLOUDY    65  59  81 CALM      29.81R
EAGLE RIVER    CLOUDY    64  57  79 W3        29.79S
LAND O LAKES   CLOUDY    64  61  93 CALM      29.81R
PHILLIPS       PTCLDY    63  60  90 CALM      29.80R
TOMAHAWK       CLOUDY    62  59  90 CALM      29.81R
MEDFORD        CLOUDY    60  59  95 CALM      29.79S
MERRILL        CLOUDY    62  60  93 CALM      29.80S
$$

WIZ029-030-035-036-043>047-300200-
CENTRAL WISCONSIN

CITY           SKY/WX    TMP DP  RH WIND       PRES   REMARKS
WAUSAU         CLOUDY    63  59  87 CALM      29.77F
MOSINEE        NOT AVBL
MARSHFIELD     CLOUDY    63  57  81 CALM      29.78S
STEVENS POINT  CLOUDY    61  58  90 CALM      29.79F
WAUPACA        CLOUDY    66  65  97 W5        29.78S
WAUTOMA        CLOUDY    65  63  93 W3        29.79F
WISC RAPIDS    CLOUDY    63  58  83 NE3       29.78F
CAMP DOUGLAS   NOT AVBL
$$

WIZ011>013-019>022-031-037>040-048>050-300200-
NORTHEAST WISCONSIN

CITY           SKY/WX    TMP DP  RH WIND       PRES   REMARKS
ANTIGO         CLOUDY    60  59  94 W3        29.80S
SHAWANO        CLOUDY    66  62  88 CALM      29.77R
OCONTO         CLOUDY    66  64  94 CALM      29.75S
STURGEON BAY   CLOUDY    66  57  72 SE6       29.79F
GREEN BAY      CLOUDY    69  66  90 CALM      29.76S
MANITOWOC      MOCLDY    66  59  78 MISG      29.78S
APPLETON       MOCLDY    70  61  73 CALM      29.76F
CLINTONVILLE   CLOUDY   N/A N/A N/A CALM      29.77R
OSHKOSH        LGT RAIN  64  60  87 SW5       29.76F FOG
$$

WIZ032>034-041-042-053>061-300200-
SOUTHWEST WISCONSIN

CITY           SKY/WX    TMP DP  RH WIND       PRES   REMARKS
LA CROSSE      CLOUDY    65  62  90 S3        29.79F
SPARTA         CLOUDY    61  59  93 SW3       29.78F
VIROQUA        CLOUDY    63  62  97 E7        29.81F
BOSCOBEL       LGT RAIN  68  61  78 N13G30    29.84R
PRAIRIE DU CHI LGT RAIN  60  59  95 N23G33    29.86R
PLATTEVILLE    MOCLDY    74  64  71 NW7       29.81R
$$

WIZ056-057-062-063-064-067-068-300200-
SOUTH CENTRAL WISCONSIN

CITY           SKY/WX    TMP DP  RH WIND       PRES   REMARKS
REEDSBURG      CLOUDY    63  59  88 CALM      29.80F
BARABOO/DELLS  CLOUDY    62  58  88 W3        29.80F
LONE ROCK      TSTM      64  59  83 CALM      29.82F
MINERAL POINT  LGT RAIN  72  64  78 CALM      29.80S
MADISON        MOCLDY    71  65  81 NW9       29.78S
MIDDLETON      CLOUDY    73  52  47 N18G24    29.82R
WATERTOWN      MOCLDY    69  68  97 CALM      29.78S THUNDER
MONROE         PTCLDY    70  66  88 S6        29.79F
JANESVILLE     PTCLDY    72  61  68 CALM      29.78S
$$

WIZ051-052-058>065-066-070>072-300200-
SOUTHEAST WISCONSIN

CITY           SKY/WX    TMP DP  RH WIND       PRES   REMARKS
MILWAUKEE      PTCLDY    67  60  78 SE7       29.79S
WAUKESHA       PTCLDY    66  61  82 SW6       29.80F
MILWAUKEE/TIMM CLEAR     75  59  57 S6        29.79S
RACINE         CLEAR     67  60  78 S7        29.81S
BURLINGTON     PTCLDY    67  62  85 CALM      29.79S
KENOSHA        CLEAR     69  61  75 S6        29.80R
FOND DU LAC    LGT RAIN  69  63  81 W7        29.78S
SHEBOYGAN      MOCLDY    67  59  75 S8        29.78F
WEST BEND      PTCLDY    64  61  88 CALM      29.78F
JUNEAU         TSTM      64  61  88 CALM      29.79S
$$

LSZ147-162-300200-
LAKE SUPERIOR

STATION/POSITION TIME  TEMP    WIND        PRES    WAVE
                       AIR SEA DIR/SP/G            HT/PER
                 (UTC) (F)     (DEG/KT/KT) (MB)    (FT/S)
W MID LAKE BUOY  0050   50 39   20/  6/  8 1009.1R   0
DEVILS ISLAND    0100   59     340/  4/  5 1009.0R
SAXON HARBOR     0000   71        CALM     1007.8S
$$

LMZ867-665-643>646-300200-
LAKE MICHIGAN

STATION/POSITION TIME  TEMP    WIND        PRES    WAVE
                       AIR SEA DIR/SP/G            HT/PER
                 (UTC) (F)     (DEG/KT/KT) (MB)    (FT/S)
CHAMBERS ISLAND  0000   69     190/  7/ 13 1007.8R
S GREEN BAY BUOY 0100   71 72  180/ 10/ 12 1008.9
N MID LAKE BUOY  0050   54 50  170/ 10/ 14 1008.3R   1
NORTHPORT PIER   0000   69     160/  4/  9 1007.5S
ALGOMA LAKESHORE 2355          210/ 11/ 13   N/A
KEWAUNEE LAKESHO 0000   62     180/ 11/ 12 1007.9R
SHEBOYGAN LAKESH 0100   62     190/ 12/ 12 1008.6F
PORT WASHINGTON  0040   65     180/  4/  6 1009.5S
ATWATER BUOY     0100   62 61  150/ 10/ 12 1010.0F
MILWAUKEE LAKESH 0000   62     130/ 11/ 12   N/A
KENOSHA   LAKESH 0100   62     170/  6/  6 1008.8S
$$

TC  - TEMPERATURE IN CELSIUS
VSB - VISIBILITY IN STATUTE MILES
WCI - WIND CHILL INDEX
HX  - HEAT INDEX



USA.gov is the U.S. government's official web portal to all federal, state and local government web resources and services.